Location: Ottawa
(45.4167°N, 75.7000°W)
Time: 02:00:59
(UTC-04:00)

Vanguard 2 - All Passes

Search period start: 23 April 2018 00:00
Search period end: 03 May 2018 00:00
Orbit: 553 x 2939 km, 32.9° (Epoch: 22 April)

Date Brightness Start Highest point End Pass type
(mag) Time Alt. Az. Time Alt. Az. Time Alt. Az.
23 Apr - 00:47:42 10° SW 00:53:20 24° S 00:57:26 10° SE night (unlit)
23 Apr - 02:58:09 10° SW 03:00:45 14° SSW 03:03:03 10° SSE night (unlit)
23 Apr - 20:48:40 10° S 20:54:10 14° SSE 20:58:40 10° SE visible
23 Apr - 22:55:36 10° SW 23:03:04 25° S 23:08:15 10° ESE visible
24 Apr - 01:05:33 10° WSW 01:11:09 24° S 01:15:14 10° SE night (unlit)
24 Apr - 03:17:09 10° SW 03:18:24 11° SSW 03:19:33 10° S night (unlit)
24 Apr - 21:04:25 10° SSW 21:12:07 19° SSE 21:17:55 10° ESE visible
24 Apr - 23:13:03 10° SW 23:20:58 28° S 23:26:20 10° ESE visible
25 Apr - 01:23:33 10° WSW 01:28:56 23° SSW 01:32:53 10° SE night (unlit)
25 Apr - 19:17:19 10° SSE 19:20:41 11° SSE 19:23:44 10° SE daylight
25 Apr - 21:20:58 10° SSW 21:30:04 24° SSE 21:36:31 10° ESE visible
25 Apr - 23:30:42 10° WSW 23:38:52 31° S 23:44:17 10° ESE visible
26 Apr - 01:41:41 10° WSW 01:46:39 21° SSW 01:50:23 10° SSE night (unlit)
26 Apr - 19:31:02 10° S 19:38:35 16° SSE 19:44:43 10° ESE daylight
26 Apr - 21:38:00 10° SW 21:48:02 29° SSE 21:54:49 10° ESE visible
26 Apr - 23:48:31 10° WSW 23:56:43 32° S 00:02:08 10° SE visible
27 Apr - 02:00:02 10° WSW 02:04:17 17° SSW 02:07:38 10° SSE night (unlit)
27 Apr - 19:46:41 10° SSW 19:56:31 22° SSE 20:03:58 10° ESE daylight
27 Apr - 21:55:21 10° SW 22:05:57 33° S 22:12:55 10° ESE visible
28 Apr - 00:06:29 10° WSW 00:14:32 31° SSW 00:19:52 10° SE visible
28 Apr - 02:18:46 10° WSW 02:21:51 14° SSW 02:24:27 10° S night (unlit)
28 Apr - 18:00:12 10° SSE 18:04:40 12° SE 18:08:45 10° SE daylight
28 Apr - 20:03:06 10° SSW 20:14:26 27° SSE 20:22:37 10° ESE daylight
28 Apr - 22:12:57 10° WSW 22:23:53 36° S 22:30:54 10° ESE visible
29 Apr - 00:24:33 10° WSW 00:32:17 29° SSW 00:37:29 10° SE visible
29 Apr - 18:13:40 10° S 18:22:29 17° SSE 18:29:54 10° ESE daylight
29 Apr - 20:20:00 10° SW 20:32:22 32° SSE 20:40:57 10° ESE visible
29 Apr - 22:30:44 10° WSW 22:41:46 38° S 22:48:46 10° ESE visible
30 Apr - 00:42:45 10° WSW 00:49:57 26° SSW 00:54:57 10° SSE visible
30 Apr - 18:29:05 10° SSW 18:40:19 22° SSE 18:49:18 10° ESE daylight
30 Apr - 20:37:15 10° SW 20:50:18 37° SSE 20:59:06 10° ESE visible
30 Apr - 22:48:39 10° WSW 22:59:38 38° S 23:06:35 10° ESE visible
01 May - 01:01:07 10° WSW 01:07:33 22° SSW 01:12:12 10° SSE visible
01 May - 16:44:40 10° SSE 16:48:17 11° SE 16:51:45 10° SE daylight
01 May - 18:45:18 10° SSW 18:58:11 28° SSE 19:08:05 10° ESE daylight
01 May - 20:54:46 10° SW 21:08:14 40° S 21:17:08 10° ESE visible
01 May - 23:06:41 10° WSW 23:17:26 37° SSW 23:24:17 10° SE visible
02 May - 01:19:46 10° WSW 01:25:03 17° SW 01:29:06 10° S visible
02 May - 16:57:01 10° S 17:05:59 16° SE 17:14:01 10° ESE daylight
02 May - 19:02:03 10° SW 19:16:04 33° SSE 19:26:31 10° ESE daylight
02 May - 21:12:29 10° WSW 21:26:09 43° S 21:35:03 10° ESE visible
02 May - 23:24:49 10° WSW 23:35:11 34° SSW 23:41:53 10° SE visible
